Lihue, HI

10:51 PM HST on April 27, 2017 (GMT -1000)
Lihue

Weather History for PHLI - June, 2012

Change the Weather History Date:

Friday, June 8, 2012

  Actual Average Record
Temperature  
Mean Temperature 79 °F 78 °F  
Max Temperature 83 °F 83 °F 86 °F (1981)
Min Temperature 75 °F 73 °F 65 °F (1955)
Degree Days  
Heating Degree Days 0 0  
Month to date heating degree days 0 0  
Since 1 June heating degree days 0 0  
Since 1 July heating degree days 0 0  
Cooling Degree Days 14 13  
Month to date cooling degree days 104 100  
Year to date cooling degree days 1510 1339  
Since 1 June cooling degree days 104 100  
Growing Degree Days 28 (Base 50)    
Moisture  
Dew Point 67 °F    
Average Humidity 70    
Maximum Humidity 82    
Minimum Humidity 58    
Precipitation  
Precipitation 0.02 in 0.05 in 1.09 in (1996)
Month to date precipitation 0.08 0.39  
Year to date precipitation 32.85 16.23  
Snow  
Snow 0.00 in - - ()
Month to date snowfall 0.0  
Since 1 June snowfall 0.0  
Since 1 July snowfall 0.0  
Snow Depth 0.00 in    
Sea Level Pressure  
Sea Level Pressure 30.07 in    
Wind  
Wind Speed 15 mph (ENE)    
Max Wind Speed 21 mph    
Max Gust Speed 25 mph    
Visibility 10 miles    
Events      
T = Trace of Precipitation, MM = Missing Value Source: NWS Daily Summary

Daily Weather History Graph

Daily Weather History Graph

Search for Another Location

Airport or City:

Trip Planner

Search our weather history database for the weather conditions in past years. The results will help you decide how hot, cold, wet, or windy it might be!

Date:

Astronomy

Jun. 08, 2012 Rise Set
Actual Time 5:53 AM HST 7:19 PM HST
Civil Twilight 5:28 AM HST 7:44 PM HST
Nautical Twilight 4:58 AM HST 8:14 PM HST
Astronomical Twilight 4:27 AM HST 8:45 PM HST
Moon 11:19 PM HST (6/8) 10:21 AM HST (6/8)
Length of Visible Light 14h 16m
Length of Day
13h 26m
Waning Gibbous, 75% of the Moon is Illuminated
Jun 8
Waning Gibbous
Jun 11
Last Quarter
Jun 19
New
Jun 26
First Quarter
Jul 3
Full

Hourly Weather History & Observations

Time (HST) Temp. Heat Index Dew Point Humidity Pressure Visibility Wind Dir Wind Speed Gust Speed Precip Events Conditions
12:53 AM 75.0 °F - 69.1 °F 82% 30.08 in 10.0 mi East 13.8 mph - N/A   Mostly Cloudy
1:53 AM 75.0 °F - 69.1 °F 82% 30.06 in 10.0 mi East 16.1 mph - 0.01 in   Overcast
2:53 AM 75.0 °F - 68.0 °F 79% 30.05 in 10.0 mi East 19.6 mph - N/A   Overcast
3:53 AM 75.0 °F - 69.1 °F 82% 30.05 in 10.0 mi East 15.0 mph - N/A   Overcast
4:53 AM 75.0 °F - 68.0 °F 79% 30.06 in 10.0 mi East 11.5 mph - N/A   Overcast
5:25 AM 75.2 °F - 68.0 °F 78% 30.07 in 10.0 mi ENE 15.0 mph - N/A   Overcast
5:53 AM 75.0 °F - 68.0 °F 79% 30.06 in 10.0 mi ENE 17.3 mph - N/A   Overcast
6:53 AM 75.0 °F - 68.0 °F 79% 30.08 in 10.0 mi East 15.0 mph - N/A   Overcast
7:53 AM 75.9 °F - 68.0 °F 76% 30.10 in 10.0 mi ENE 16.1 mph - N/A   Overcast
8:53 AM 78.1 °F - 66.9 °F 68% 30.10 in 10.0 mi ENE 16.1 mph - N/A   Mostly Cloudy
9:53 AM 79.0 °F - 66.9 °F 66% 30.10 in 10.0 mi ENE 16.1 mph - N/A   Clear
10:53 AM 81.0 °F 83.0 °F 66.0 °F 60% 30.09 in 10.0 mi ENE 17.3 mph - N/A   Clear
11:53 AM 81.0 °F 83.0 °F 66.0 °F 60% 30.09 in 10.0 mi ENE 15.0 mph - N/A   Clear
12:53 PM 82.0 °F 84.5 °F 66.9 °F 60% 30.08 in 10.0 mi ENE 15.0 mph - 0.01 in   Clear
1:53 PM 80.1 °F 82.7 °F 68.0 °F 67% 30.06 in 10.0 mi ENE 13.8 mph - N/A   Clear
2:53 PM 82.0 °F 84.1 °F 66.0 °F 58% 30.05 in 10.0 mi NE 12.7 mph - N/A   Clear
3:21 PM 80.6 °F 83.2 °F 68.0 °F 65% 30.05 in 10.0 mi NE 12.7 mph - N/A   Partly Cloudy
3:53 PM 81.0 °F 83.8 °F 68.0 °F 65% 30.05 in 10.0 mi NE 10.4 mph - N/A   Mostly Cloudy
4:22 PM 78.8 °F - 66.2 °F 65% 30.05 in 10.0 mi ENE 12.7 mph - N/A   Overcast
4:29 PM 78.8 °F - 66.2 °F 65% 30.04 in 10.0 mi ENE 12.7 mph - N/A   Overcast
4:53 PM 79.0 °F - 66.0 °F 64% 30.04 in 10.0 mi ENE 12.7 mph - N/A   Mostly Cloudy
5:32 PM 78.8 °F - 66.2 °F 65% 30.04 in 10.0 mi ENE 12.7 mph - N/A   Overcast
5:53 PM 77.0 °F - 66.0 °F 69% 30.04 in 10.0 mi NE 12.7 mph - N/A   Overcast
6:30 PM 77.0 °F - 64.4 °F 65% 30.06 in 10.0 mi NE 11.5 mph - N/A   Overcast
6:39 PM 77.0 °F - 66.2 °F 69% 30.06 in 10.0 mi NE 10.4 mph - N/A   Overcast
6:53 PM 75.9 °F - 66.0 °F 71% 30.06 in 10.0 mi ENE 11.5 mph - N/A   Overcast
7:09 PM 75.2 °F - 66.2 °F 73% 30.06 in 10.0 mi ENE 10.4 mph - N/A   Overcast
7:53 PM 75.0 °F - 66.9 °F 76% 30.06 in 10.0 mi ENE 13.8 mph - N/A   Overcast
8:07 PM 75.2 °F - 66.2 °F 73% 30.08 in 10.0 mi NE 13.8 mph - N/A   Overcast
8:53 PM 75.0 °F - 66.0 °F 73% 30.08 in 10.0 mi ENE 13.8 mph - N/A   Overcast
9:53 PM 75.0 °F - 66.9 °F 76% 30.10 in 10.0 mi ENE 12.7 mph - N/A   Overcast
10:53 PM 75.0 °F - 66.9 °F 76% 30.10 in 10.0 mi ENE 12.7 mph - N/A   Overcast
11:53 PM 75.0 °F - 66.9 °F 76% 30.09 in 10.0 mi ENE 12.7 mph - N/A   Overcast